Latest Weather Observations for Dennes Point

IDT60901

Issued at 6:31 am EST Sunday 31 July 2016 (issued every 10 minutes, with the page automatically refreshed every 10 minutes)

About weather observations | Map of Hobart area stations | Latest observations for Hobart area | Other Formats
Station Details ID: 094255 Name: DENNES POINT Lat: -43.06 Lon: 147.36 Height: 5.67 m
Data from the previous 72 hours. | See also: Recent months at Dennes Point
Date/Time
EST
Temp
°C
App
Temp
°C
Dew
Point
°C
Rel
Hum
%
Delta-T
°C
Wind Press
QNH
hPa
Press
MSL
hPa
Rain since
9am
mm
Dir  Spd
km/h
Gust
km/h
Spd
kts
Gust
kts
31/06:30am 9.6 4.5 4.2 69 2.4 W 20 30 11 16 1004.4 1004.4 0.8
31/06:18am 9.8 3.2 4.4 69 2.4 WSW 28 41 15 22 1004.3 1004.3 0.8
31/06:00am 10.9 7.3 4.8 66 2.8 NW 13 20 7 11 1003.7 1003.7 0.8
31/05:30am 10.3 9.2 4.9 69 2.4 CALM 0 2 0 1 1003.3 1003.3 0.8
31/05:00am 10.5 7.8 5.7 72 2.2 NNW 9 11 5 6 1002.4 1002.4 0.6
31/04:30am 11.2 7.7 5.5 68 2.6 WSW 13 17 7 9 1002.3 1002.3 0.6
31/04:00am 10.6 7.9 5.8 72 2.2 SW 9 19 5 10 1001.9 1002.0 0.4
31/03:30am 11.0 7.4 6.7 75 2.0 WSW 15 32 8 17 1001.7 1001.8 0.4
31/03:00am 10.6 8.7 7.5 81 1.5 WNW 7 11 4 6 1001.7 1001.8 0.4
31/02:30am 10.3 8.5 7.2 81 1.5 N 6 13 3 7 1001.5 1001.6 0.2
31/02:00am 10.6 6.7 6.9 78 1.8 NW 17 24 9 13 1002.5 1002.5 0.0
31/01:30am 10.5 8.1 6.8 78 1.7 NNE 9 11 5 6 1001.0 1001.1 0.0
31/01:00am 10.6 6.2 6.6 76 1.9 N 19 22 10 12 1001.0 1001.1 0.0
31/12:30am 10.7 4.6 6.8 77 1.8 NNE 28 33 15 18 1001.5 1001.6 0.0
31/12:00am 10.2 6.1 6.4 77 1.8 NNE 17 20 9 11 1002.5 1002.5 0.0
 
Date/Time
EST
Temp
°C
App
Temp
°C
Dew
Point
°C
Rel
Hum
%
Delta-T
°C
Wind Press
QNH
hPa
Press
MSL
hPa
Rain since
9am
mm
Dir  Spd
km/h
Gust
km/h
Spd
kts
Gust
kts
30/11:30pm 10.1 5.6 6.3 77 1.8 NNE 19 22 10 12 1003.1 1003.1 0.0
30/11:00pm 10.1 5.4 6.1 76 1.9 NNE 20 22 11 12 1003.8 1003.8 0.0
30/10:30pm 10.0 4.1 6.0 76 1.8 NNE 26 30 14 16 1004.4 1004.4 0.0
30/10:00pm 9.8 4.5 5.2 73 2.1 NNE 22 28 12 15 1005.2 1005.2 0.0
30/09:30pm 10.1 3.7 5.1 71 2.3 NNE 28 35 15 19 1005.8 1005.8 0.0
30/09:00pm 10.1 3.6 4.9 70 2.3 NNE 28 35 15 19 1006.4 1006.4 0.0
30/08:30pm 9.9 5.0 4.9 71 2.2 N 20 28 11 15 1006.8 1006.8 0.0
30/08:00pm 9.7 5.7 4.9 72 2.2 NNE 15 20 8 11 1007.2 1007.2 0.0
30/07:30pm 9.8 5.0 4.4 69 2.4 NNE 19 22 10 12 1007.8 1007.8 0.0
30/07:00pm 9.7 4.9 4.5 70 2.3 N 19 22 10 12 1008.7 1008.7 0.0
30/06:30pm 9.5 5.4 4.1 69 2.4 NNE 15 20 8 11 1008.9 1008.9 0.0
30/06:00pm 9.8 4.8 4.4 69 2.4 N 20 22 11 12 1009.1 1009.1 0.0
30/05:30pm 9.7 4.8 4.3 69 2.4 NNE 19 24 10 13 1009.5 1009.5 0.0
30/05:00pm 9.8 4.6 3.8 66 2.6 N 20 24 11 13 1009.8 1009.8 0.0
30/04:30pm 9.8 4.2 3.5 65 2.7 N 22 26 12 14 1010.6 1010.6 0.0
30/04:00pm 9.9 4.3 3.2 63 2.9 N 22 26 12 14 1011.1 1011.1 0.0
30/03:30pm 9.9 4.8 3.2 63 2.9 N 19 22 10 12 1011.6 1011.6 0.0
30/03:00pm 9.9 4.6 3.2 63 2.9 N 20 24 11 13 1012.0 1012.0 0.0
30/02:30pm 9.5 3.8 2.8 63 2.9 NNE 22 28 12 15 1012.2 1012.2 0.0
30/02:00pm 9.6 4.3 3.1 64 2.8 NNE 20 24 11 13 1013.0 1013.0 0.0
30/01:30pm 9.5 4.7 2.8 63 2.9 NNE 17 20 9 11 1013.7 1013.7 0.0
30/01:00pm 9.1 4.6 2.4 63 2.8 NNE 15 20 8 11 1014.5 1014.5 0.0
30/12:30pm 9.1 4.6 2.4 63 2.8 NNE 15 17 8 9 1015.4 1015.4 0.0
30/12:00pm 8.7 4.4 3.1 68 2.4 NNE 15 17 8 9 1016.1 1016.1 0.0
30/11:30am 8.4 3.3 3.1 69 2.3 N 19 20 10 11 1016.8 1016.8 0.0
30/11:00am 8.5 3.8 2.9 68 2.4 N 17 20 9 11 1017.4 1017.4 0.0
30/10:30am 8.7 5.1 2.9 67 2.5 N 11 17 6 9 1017.8 1017.8 0.0
30/10:00am 7.8 4.2 2.9 71 2.1 N 11 17 6 9 1018.0 1018.0 0.0
30/09:30am 7.4 4.1 2.3 70 2.1 N 9 15 5 8 1018.3 1018.3 0.0
30/09:00am 6.8 4.8 2.3 73 1.8 WSW 2 4 1 2 1018.5 1018.5 0.8
30/08:30am 5.0 1.5 1.1 76 1.5 SSW 9 11 5 6 1018.5 1018.5 0.8
30/08:00am 4.3 0.6 0.1 74 1.6 SW 9 13 5 7 1018.2 1018.2 0.8
30/07:30am 5.7 2.6 1.2 73 1.8 SSW 7 15 4 8 1018.1 1018.1 0.8
30/07:00am 4.8 1.6 0.8 75 1.5 WSW 7 13 4 7 1017.7 1017.7 0.8
30/06:30am 5.4 2.2 0.8 72 1.8 SSW 7 9 4 5 1017.4 1017.4 0.8
30/06:00am 7.5 3.9 0.9 63 2.6 NW 9 11 5 6 1017.4 1017.4 0.8
30/05:30am 7.4 3.6 1.7 67 2.3 NNW 11 13 6 7 1017.6 1017.6 0.8
30/05:00am 7.3 3.3 0.5 62 2.7 WNW 11 17 6 9 1017.4 1017.4 0.8
30/04:30am 7.7 3.1 1.3 64 2.6 WNW 15 20 8 11 1017.5 1017.5 0.8
30/04:00am 7.1 2.5 1.8 69 2.2 W 15 17 8 9 1017.4 1017.4 0.8
30/03:30am 7.2 2.7 1.9 69 2.2 W 15 19 8 10 1017.0 1017.0 0.8
30/03:00am 7.7 2.8 2.0 67 2.3 WNW 17 22 9 12 1017.1 1017.1 0.8
30/02:30am 7.2 2.2 1.5 67 2.3 W 17 20 9 11 1016.9 1016.9 0.8
30/02:00am 7.0 2.4 1.5 68 2.2 W 15 19 8 10 1017.0 1017.0 0.8
30/01:30am 7.5 2.6 1.8 67 2.3 W 17 22 9 12 1016.7 1016.7 0.8
30/01:00am 7.5 2.0 1.8 67 2.3 WSW 20 26 11 14 1016.5 1016.5 0.8
30/12:30am 7.1 3.0 2.2 71 2.0 WSW 13 19 7 10 1016.5 1016.5 0.8
30/12:00am 7.3 2.8 2.0 69 2.2 SW 15 20 8 11 1016.3 1016.3 0.8
 
Date/Time
EST
Temp
°C
App
Temp
°C
Dew
Point
°C
Rel
Hum
%
Delta-T
°C
Wind Press
QNH
hPa
Press
MSL
hPa
Rain since
9am
mm
Dir  Spd
km/h
Gust
km/h
Spd
kts
Gust
kts
29/11:30pm 8.0 2.6 2.7 69 2.2 WSW 20 28 11 15 1016.0 1016.0 0.8
29/11:00pm 7.8 2.0 2.3 68 2.3 WSW 22 32 12 17 1015.7 1015.7 0.8
29/10:30pm 8.0 1.1 2.5 68 2.3 WSW 28 39 15 21 1014.8 1014.8 0.8
29/10:00pm 7.9 1.8 2.8 70 2.1 WSW 24 33 13 18 1014.5 1014.5 0.8
29/09:30pm 8.1 3.6 2.1 66 2.5 SSW 15 19 8 10 1014.3 1014.3 0.8
29/09:00pm 8.2 4.8 1.8 64 2.6 SW 9 15 5 8 1014.1 1014.1 0.8
29/08:30pm 8.4 3.9 2.0 64 2.7 WSW 15 22 8 12 1013.5 1013.5 0.8
29/08:00pm 8.1 2.7 2.4 67 2.4 WSW 20 32 11 17 1012.5 1012.5 0.8
29/07:30pm 7.9 1.5 3.0 71 2.1 SW 26 37 14 20 1012.1 1012.1 0.8
29/07:00pm 7.6 0.5 3.3 74 1.8 SW 30 39 16 21 1011.2 1011.2 0.8
29/06:30pm 8.9 -0.4 3.1 67 2.5 WSW 41 54 22 29 1009.7 1009.7 0.8
29/06:00pm 9.2 0.4 3.6 68 2.4 WSW 39 59 21 32 1009.3 1009.3 0.8
29/05:34pm 9.5 1.2 4.3 70 2.3 WSW 37 57 20 31 1008.8 1008.8 0.8
29/05:30pm 9.7 1.8 4.5 70 2.3 WSW 35 46 19 25 1008.7 1008.7 0.8
29/05:00pm 9.8 3.4 5.4 74 2.0 SW 28 39 15 21 1007.7 1007.7 0.8
29/04:30pm 9.8 5.3 6.2 78 1.7 SW 19 28 10 15 1007.2 1007.2 0.8
29/04:00pm 11.2 6.8 6.5 73 2.2 SW 19 28 10 15 1006.6 1006.6 0.6
29/03:30pm 11.9 9.5 6.8 71 2.4 SW 9 13 5 7 1005.7 1005.7 0.6
29/03:00pm 10.9 3.7 6.1 72 2.2 WSW 33 52 18 28 1005.3 1005.3 0.6
29/02:58pm 10.9 3.7 6.1 72 2.2 WSW 33 52 18 28 1005.2 1005.2 0.6
29/02:30pm 12.9 4.9 5.8 62 3.3 WSW 37 50 20 27 1004.3 1004.3 0.0
29/02:07pm 13.6 7.0 6.0 60 3.6 W 30 48 16 26 1004.0 1004.0 0.0
29/02:00pm 13.4 6.4 5.8 60 3.6 W 32 48 17 26 1003.8 1003.8 0.0
29/01:52pm 13.6 8.2 6.2 61 3.5 WNW 24 37 13 20 1004.1 1004.1 0.0
29/01:30pm 12.1 9.8 5.9 66 2.9 W 7 11 4 6 1004.3 1004.3 0.0
29/01:00pm 12.1 10.4 5.9 66 2.9 SSW 4 7 2 4 1004.7 1004.7 0.0
29/12:30pm 11.7 9.5 6.0 68 2.7 WSW 7 13 4 7 1005.2 1005.2 0.0
29/12:00pm 12.7 9.8 4.9 59 3.6 WSW 9 17 5 9 1005.0 1005.0 0.0
29/11:30am 12.7 10.4 5.6 62 3.3 NW 7 19 4 10 1005.3 1005.3 0.0
29/11:00am 12.4 9.4 6.0 65 3.0 NNW 11 22 6 12 1005.6 1005.6 0.0
29/10:30am 11.7 8.7 6.2 69 2.6 WNW 11 20 6 11 1006.2 1006.2 0.0
29/10:00am 11.8 10.1 5.7 66 2.8 SSW 4 7 2 4 1006.2 1006.2 0.0
29/09:30am 11.7 9.6 5.8 67 2.7 NW 6 13 3 7 1006.1 1006.1 0.0
29/09:00am 11.9 9.8 5.8 66 2.9 NW 6 11 3 6 1006.0 1006.0 0.0
29/08:30am 11.7 9.7 6.2 69 2.6 N 6 17 3 9 1006.1 1006.1 0.0
29/08:00am 11.0 8.4 6.2 72 2.2 W 9 15 5 8 1006.7 1006.7 0.0
29/07:30am 11.2 7.0 5.9 70 2.5 N 17 20 9 11 1006.7 1006.7 0.0
29/07:00am 11.2 8.0 5.3 67 2.7 NW 11 15 6 8 1006.7 1006.7 0.0
29/06:30am 11.4 7.9 5.3 66 2.8 NW 13 22 7 12 1006.7 1006.7 0.0
29/06:00am 11.3 8.2 5.6 68 2.6 NNW 11 22 6 12 1006.7 1006.7 0.0
29/05:30am 11.5 8.0 5.6 67 2.7 NNW 13 22 7 12 1006.5 1006.5 0.0
29/05:00am 11.4 7.1 5.1 65 2.9 NW 17 28 9 15 1007.0 1007.0 0.0
29/04:30am 11.5 7.9 5.2 65 2.9 NNW 13 19 7 10 1006.9 1006.9 0.0
29/04:00am 11.2 6.9 5.1 66 2.8 WNW 17 24 9 13 1007.1 1007.1 0.0
29/03:30am 11.3 6.4 5.0 65 2.9 NW 20 28 11 15 1007.5 1007.5 0.0
29/03:00am 11.3 4.0 4.7 64 3.0 WNW 32 43 17 23 1007.5 1007.5 0.0
29/02:30am 11.3 7.6 4.5 63 3.1 NW 13 26 7 14 1007.8 1007.8 0.0
29/02:00am 11.3 7.5 4.1 61 3.2 WNW 13 20 7 11 1008.1 1008.1 0.0
29/01:30am 11.2 7.1 4.2 62 3.1 WNW 15 26 8 14 1008.3 1008.3 0.0
29/01:00am 11.3 7.3 4.7 64 3.0 NW 15 20 8 11 1008.5 1008.5 0.0
29/12:30am 11.0 7.3 4.7 65 2.8 NW 13 20 7 11 1008.8 1008.8 0.0
29/12:00am 11.1 8.5 4.3 63 3.1 NW 7 13 4 7 1009.1 1009.1 0.0
 
Date/Time
EST
Temp
°C
App
Temp
°C
Dew
Point
°C
Rel
Hum
%
Delta-T
°C
Wind Press
QNH
hPa
Press
MSL
hPa
Rain since
9am
mm
Dir  Spd
km/h
Gust
km/h
Spd
kts
Gust
kts
28/11:30pm 10.8 7.1 4.3 64 2.9 WNW 13 20 7 11 1009.3 1009.3 0.0
28/11:00pm 11.2 6.6 3.7 60 3.3 NW 17 24 9 13 1009.4 1009.4 0.0
28/10:30pm 11.2 8.2 4.2 62 3.1 NNW 9 13 5 7 1009.8 1009.8 0.0
28/10:00pm 11.1 6.0 4.1 62 3.1 W 20 32 11 17 1009.7 1009.7 0.0
28/09:30pm 10.9 6.8 4.6 65 2.8 W 15 24 8 13 1010.0 1010.0 0.0
28/09:00pm 11.0 6.7 5.1 67 2.7 W 17 28 9 15 1010.0 1010.0 0.0
28/08:30pm 11.2 4.7 4.9 65 2.9 W 28 39 15 21 1010.1 1010.1 0.0
28/08:00pm 11.4 5.6 4.6 63 3.1 W 24 32 13 17 1010.0 1010.0 0.0
28/07:30pm 11.3 4.4 4.7 64 3.0 W 30 44 16 24 1010.0 1010.0 0.0
28/07:00pm 11.6 6.5 4.1 60 3.4 W 20 28 11 15 1010.2 1010.2 0.0
28/06:30pm 11.6 7.7 3.4 57 3.6 NW 13 22 7 12 1009.7 1009.7 0.0
28/06:00pm 11.7 7.9 4.0 59 3.5 NNW 13 20 7 11 1009.8 1009.8 0.0
28/05:30pm 12.1 9.4 3.6 56 3.8 W 7 11 4 6 1009.6 1009.6 0.0
28/05:00pm 12.1 10.0 4.1 58 3.6 N 4 13 2 7 1009.1 1009.1 0.0
28/04:30pm 12.5 9.1 4.2 57 3.8 WNW 11 22 6 12 1008.5 1008.5 0.0
28/04:00pm 12.2 5.4 5.1 62 3.3 W 30 41 16 22 1007.9 1007.9 0.0
28/03:30pm 12.7 5.9 5.1 60 3.5 W 30 43 16 23 1007.7 1007.7 0.0
28/03:28pm 12.8 6.4 5.2 60 3.5 W 28 43 15 23 1007.6 1007.6 0.0
28/03:00pm 13.8 10.7 5.4 57 4.0 WNW 11 20 6 11 1007.7 1007.7 0.0
28/02:30pm 14.3 11.3 5.9 57 4.0 W 11 22 6 12 1007.0 1007.0 0.0
28/02:00pm 14.0 9.8 5.6 57 4.0 WNW 17 33 9 18 1006.6 1006.6 0.0
28/01:30pm 13.4 7.9 5.8 60 3.6 W 24 44 13 24 1006.5 1006.5 0.0
28/01:00pm 13.3 6.1 5.7 60 3.6 W 33 54 18 29 1006.1 1006.1 0.0
28/12:44pm 13.4 4.0 5.6 59 3.7 WSW 44 65 24 35 1005.5 1005.5 0.0
28/12:30pm 13.5 5.5 5.9 60 3.6 WSW 37 52 20 28 1005.8 1005.8 0.0
28/12:11pm 13.6 5.8 6.5 62 3.4 W 37 61 20 33 1005.8 1005.8 0.0
28/12:00pm 13.6 6.1 6.5 62 3.4 WSW 35 48 19 26 1006.0 1006.0 0.0
28/11:35am 13.6 6.2 6.7 63 3.3 WSW 35 54 19 29 1006.3 1006.3 0.0
28/11:30am 13.5 5.7 6.6 63 3.3 WSW 37 54 20 29 1006.2 1006.2 0.0
28/11:07am 13.5 4.6 6.8 64 3.2 WSW 43 63 23 34 1006.4 1006.4 0.0
28/11:00am 13.3 3.0 6.4 63 3.3 W 50 69 27 37 1006.3 1006.3 0.0
28/10:30am 13.2 3.3 6.5 64 3.2 W 48 67 26 36 1006.0 1006.0 0.0
28/10:01am 12.9 3.0 6.7 66 3.0 W 48 67 26 36 1005.5 1005.5 0.0
28/10:00am 12.9 3.0 6.7 66 3.0 W 48 65 26 35 1005.5 1005.5 0.0
28/09:31am 12.6 2.8 6.9 68 2.7 W 48 74 26 40 1005.3 1005.3 0.0
28/09:30am 12.5 3.1 7.0 69 2.6 W 46 61 25 33 1005.5 1005.5 0.0
28/09:03am 12.1 2.2 6.8 70 2.5 WSW 48 70 26 38 1005.3 1005.3 0.0
28/09:00am 12.0 2.5 6.9 71 2.4 WSW 46 59 25 32 1005.4 1005.4 2.2
28/08:37am 11.6 3.5 6.9 73 2.2 WSW 39 59 21 32 1005.6 1005.6 2.2
28/08:30am 11.4 3.2 6.7 73 2.2 WSW 39 48 21 26 1005.7 1005.7 2.2
28/08:00am 11.1 2.5 6.5 73 2.2 W 41 61 22 33 1005.1 1005.1 2.2
28/07:35am 11.2 5.0 6.1 71 2.4 WNW 28 48 15 26 1005.2 1005.2 2.2
28/07:30am 11.1 4.9 6.0 71 2.4 WNW 28 44 15 24 1005.0 1005.0 2.2
28/07:00am 10.7 6.1 5.5 70 2.4 NW 19 43 10 23 1005.7 1005.7 2.2

Latest Capital City Observations: Canberra | Sydney | Melbourne | Brisbane | Adelaide | Perth | Hobart | Darwin

Other Formats:

Comma delimited format used in spreadsheet applications
http://www.bom.gov.au/fwo/IDT60901/IDT60901.94988.axf

JavaScript Object Notation format (JSON) in row-major order
http://www.bom.gov.au/fwo/IDT60901/IDT60901.94988.json